This is the latest recevied weather packets stored in our database for station/object W6DSP. If no packets are shown the sender has not sent any weather packets the latest 10 day(s).
| Time | Temp. | Humidity | Pressure | Rain* | Wind** | Luminosity | Snow |
|---|---|---|---|---|---|---|---|
| 1777745259 | 8.89° C | 51% | 1020 hPa | 0 mm | - | - | - |
| 1777744511 | 8.89° C | 48% | 1020 hPa | 0 mm | - | - | - |
| 1777743807 | 10° C | 53% | 1020.1 hPa | 0 mm | - | - | - |
| 1777743060 | 8.89° C | 49% | 1020.3 hPa | 0 mm | - | - | - |
| 1777742313 | 9.44° C | 49% | 1020.2 hPa | 0 mm | - | - | - |
| 1777741585 | 8.33° C | 52% | 1020.5 hPa | 0 mm | - | - | - |
| 1777740876 | 8.89° C | 50% | 1020.4 hPa | 0 mm | - | - | - |
| 1777740133 | 7.78° C | 53% | 1020.7 hPa | 0 mm | - | - | - |
| 1777739377 | 8.89° C | 57% | 1020.7 hPa | 0 mm | - | - | - |
| 1777738628 | 7.78° C | 54% | 1020.8 hPa | 0 mm | - | - | - |
| 1777737933 | 7.78° C | 59% | 1021 hPa | 0 mm | - | - | - |
| 1777737219 | 7.78° C | 58% | 1020.9 hPa | 0 mm | - | - | - |
| 1777736520 | 8.33° C | 56% | 1020.9 hPa | 0 mm | - | - | - |
| 1777735793 | 7.22° C | 63% | 1020.9 hPa | 0 mm | - | - | - |
| 1777735063 | 7.78° C | 60% | 1020.9 hPa | 0 mm | - | - | - |
| 1777734341 | 8.33° C | 60% | 1020.9 hPa | 0 mm | - | - | - |
| 1777733609 | 7.78° C | 60% | 1020.7 hPa | 0 mm | - | - | - |
| 1777732907 | 7.22° C | 62% | 1020.7 hPa | 0 mm | - | - | - |
| 1777732181 | 7.22° C | 59% | 1020.7 hPa | 0 mm | - | - | - |
| 1777731476 | 6.67° C | 58% | 1020.7 hPa | 0 mm | - | - | - |
| 1777730743 | 6.11° C | 59% | 1020.8 hPa | 0 mm | - | - | - |
| 1777729997 | 6.11° C | 59% | 1020.7 hPa | 0 mm | - | - | - |
| 1777729273 | 6.11° C | 62% | 1020.7 hPa | 0 mm | - | - | - |
| 1777728515 | 5.56° C | 63% | 1020.7 hPa | 0 mm | - | - | - |
| 1777727759 | 5° C | 69% | 1020.7 hPa | 0 mm | - | - | - |
* Rain latest hour (hover to see other rain measurements)
** Current wind speed in m/s (hover to see current wind gust speed)